Weather History for Tucson, AZ

Change the Weather History Date:

Tuesday, May 13, 2014

  Actual Average Record
Temperature  
Mean Temperature 70 °F 75 °F  
Max Temperature 87 °F 91 °F 105 °F (1988)
Min Temperature 52 °F 60 °F 39 °F (1933)
Degree Days  
Heating Degree Days 0 0  
Month to date heating degree days 0 3  
Since 1 July heating degree days 899 1509  
Cooling Degree Days 5 10  
Month to date cooling degree days 98 112  
Year to date cooling degree days 310 266  
Growing Degree Days 20 (Base 50)    
Moisture  
Dew Point 12 °F    
Average Humidity 13    
Maximum Humidity 20    
Minimum Humidity 5    
Precipitation  
Precipitation 0.00 in 0.01 in 0.08 in (1977)
Month to date precipitation 0.00 0.09  
Year to date precipitation 0.61 2.93  
Sea Level Pressure  
Sea Level Pressure 29.99 in    
Wind  
Wind Speed 5 mph (NE)    
Max Wind Speed 14 mph    
Max Gust Speed 18 mph    
Visibility 10 miles    
Events      
T = Trace of Precipitation, MM = Missing Value Source: NWS Daily Summary

Daily Weather History Graph

Daily Weather History Graph

Search for Another Location

Airport:

Trip Planner

Search our weather history database for the weather conditions in past years. The results will help you decide how hot, cold, wet, or windy it might be!

Date:

Astronomy

May. 13, 2014 Rise Set
Actual Time 5:27 AM MST 7:13 PM MST
Civil Twilight 5:00 AM MST 7:40 PM MST
Nautical Twilight 4:28 AM MST 8:12 PM MST
Astronomical Twilight 3:54 AM MST 8:46 PM MST
Moon 6:22 PM MST (5/13) 4:40 AM MST (5/13)
Length of Visible Light 14h 39m
Length of Day
13h 45m
Waxing Gibbous, 99% of the Moon is Illuminated
May 13
Waxing Gibbous
May 14
Full
May 21
Last Quarter
May 28
New
Jun 5
First Quarter

Hourly Weather History & Observations

Time (MST) Temp. Dew Point Humidity Pressure Visibility Wind Dir Wind Speed Gust Speed Precip Events Conditions
12:53 AM 61.0 °F 14.0 °F 16% 29.95 in 10.0 mi South 5.8 mph - N/A   Clear
1:53 AM 59.0 °F 15.1 °F 18% 29.95 in 10.0 mi South 4.6 mph - N/A   Clear
2:53 AM 57.0 °F 12.9 °F 18% 29.96 in 10.0 mi SE 4.6 mph - N/A   Clear
3:53 AM 57.0 °F 12.9 °F 18% 29.96 in 10.0 mi ESE 4.6 mph - N/A   Clear
4:53 AM 55.0 °F 14.0 °F 20% 29.98 in 10.0 mi WSW 3.5 mph - N/A   Clear
5:53 AM 53.6 °F 14.0 °F 21% 30.10 in 10.0 mi SE 4.6 mph - N/A   Clear
6:53 AM 59.0 °F 15.1 °F 18% 30.03 in 10.0 mi NW 4.6 mph - N/A   Clear
7:53 AM 68.0 °F 12.9 °F 12% 30.03 in 10.0 mi North 4.6 mph - N/A   Clear
8:53 AM 71.6 °F 10.4 °F 9% 30.13 in 10.0 mi East 3.5 mph - N/A   Clear
9:53 AM 75.9 °F 10.9 °F 8% 30.02 in 10.0 mi North 5.8 mph - N/A   Clear
10:53 AM 80.1 °F 9.0 °F 7% 30.01 in 10.0 mi Variable 4.6 mph - N/A   Clear
11:53 AM 80.1 °F 7.0 °F 6% 30.00 in 10.0 mi ENE 8.1 mph - N/A   Clear
12:53 PM 84.0 °F 9.0 °F 6% 29.99 in 10.0 mi Calm Calm - N/A   Clear
1:53 PM 84.9 °F 8.1 °F 5% 29.98 in 10.0 mi NNW 8.1 mph - N/A   Clear
2:53 PM 84.9 °F 8.1 °F 5% 29.96 in 10.0 mi NW 9.2 mph - N/A   Clear
3:53 PM 84.9 °F 9.0 °F 6% 29.94 in 10.0 mi WNW 8.1 mph - N/A   Clear
4:53 PM 84.9 °F 10.0 °F 6% 29.94 in 10.0 mi North - - N/A   Clear
5:53 PM 86.0 °F 9.0 °F 5% 29.93 in 10.0 mi NW 4.6 mph - N/A   Clear
6:53 PM 84.0 °F 7.0 °F 5% 29.94 in 10.0 mi North 5.8 mph - N/A   Clear
7:53 PM 82.0 °F 8.1 °F 6% 29.95 in 10.0 mi NE 3.5 mph - N/A   Clear
8:53 PM 79.0 °F 12.9 °F 8% 29.97 in 10.0 mi ENE 3.5 mph - N/A   Clear
9:53 PM 77.0 °F 15.1 °F 10% 29.99 in 10.0 mi East 5.8 mph - N/A   Clear
10:53 PM 72.0 °F 17.1 °F 12% 30.01 in 10.0 mi SW 9.2 mph - N/A   Clear
11:53 PM 71.1 °F 15.1 °F 12% 30.02 in 10.0 mi SE 4.6 mph - N/A   Clear